Total_Precipitation_Accumulation
1.81 2.04 2.57 3.27 3.67 4.20 4.71 4.70 4.51 4.59 4.72 4.74 4.52 4.67 4.87 5.17 5.48 5.43 5.33 5.21 5.08 4.99 5.13 5.20 5.17 5.01 5.01 4.94 4.85 4.83 4.76 4.44 4.23 4.27 3.89 3.37 2.92 2.68 2.59 2.59 2.67 2.65 2.59
2.01 2.31 2.84 3.21 3.59 3.94 4.20 4.51 4.67 4.72 4.53 4.90 5.18 5.47 5.82 5.88 6.17 6.42 6.44 6.22 5.92 5.72 5.58 5.63 5.31 5.03 4.97 4.89 4.77 4.67 4.53 4.15 4.01 4.09 4.12 3.55 3.08 2.52 2.17 2.25 2.26 2.34 2.48
2.30 2.67 3.02 3.18 3.41 3.75 4.11 4.45 4.81 4.95 4.90 5.40 5.93 6.37 6.76 6.68 6.73 6.67 6.64 6.58 6.14 5.81 5.61 5.39 5.25 5.10 4.92 4.77 4.74 4.65 4.51 4.19 3.99 3.94 4.16 3.91 3.38 2.80 2.44 2.19 2.19 2.29 2.39
2.09 2.44 2.79 3.25 3.23 3.48 3.89 4.25 4.69 5.13 5.46 5.89 6.36 6.87 7.21 7.44 7.26 6.93 6.63 6.25 5.76 5.44 5.09 4.91 5.00 4.93 4.70 4.49 4.18 4.08 4.08 4.04 3.85 3.77 3.61 3.52 3.38 3.18 2.85 2.52 2.44 2.49 2.46
1.99 2.21 2.37 2.72 3.02 3.27 3.64 4.08 4.44 4.87 5.53 6.30 6.87 7.39 7.74 7.77 7.22 6.61 6.04 5.56 5.12 4.79 4.55 4.50 4.64 4.59 4.34 4.12 3.84 3.68 3.48 3.45 3.55 3.60 3.49 3.34 3.20 2.97 2.87 2.70 2.52 2.48 2.39
2.05 2.22 2.36 2.67 2.90 3.02 3.30 3.85 4.40 4.78 5.35 6.14 6.72 7.07 7.26 7.20 6.74 6.09 5.52 5.06 4.59 4.20 3.89 3.73 3.68 3.66 3.52 3.37 3.31 3.27 3.21 3.19 3.27 3.31 3.26 3.18 3.09 2.98 2.99 2.82 2.53 2.49 2.48
2.27 2.25 2.26 2.36 2.63 2.82 3.10 3.56 4.08 4.58 4.97 5.46 5.96 6.01 6.09 5.84 5.44 5.21 4.89 4.36 3.91 3.55 3.21 3.04 2.95 2.97 2.96 2.87 2.89 2.95 2.97 2.94 3.00 2.97 2.95 2.91 2.74 2.73 2.89 3.00 2.80 2.63 2.46
2.12 2.17 2.14 2.35 2.69 2.97 3.25 3.52 3.77 4.12 4.51 4.69 4.84 4.70 4.55 4.48 4.33 4.09 3.73 3.36 3.08 2.89 2.79 2.72 2.56 2.54 2.56 2.54 2.71 2.69 2.59 2.62 2.65 2.58 2.68 2.68 2.57 2.63 2.72 2.86 3.09 3.07 2.76
1.93 2.01 2.14 2.44 2.72 2.98 3.16 3.41 3.59 3.70 3.69 3.72 3.79 3.73 3.62 3.48 3.41 3.31 3.02 2.73 2.59 2.42 2.41 2.38 2.32 2.21 2.14 2.13 2.17 2.17 2.21 2.31 2.27 2.29 2.31 2.30 2.35 2.45 2.51 2.63 2.94 3.23 3.13
2.00 2.03 2.17 2.43 2.50 2.55 2.74 2.99 3.12 3.32 3.31 3.15 3.07 3.13 3.04 2.84 2.68 2.53 2.40 2.24 2.15 2.11 2.10 2.02 1.98 1.97 1.97 1.90 1.85 1.84 1.92 2.00 2.05 2.10 2.06 2.01 2.03 2.18 2.22 2.31 2.51 2.82 3.06
2.14 2.08 2.20 2.31 2.20 2.14 2.16 2.32 2.55 2.87 2.92 2.81 2.68 2.71 2.62 2.47 2.32 2.20 2.11 2.07 1.96 1.91 1.85 1.85 1.85 1.74 1.72 1.76 1.81 1.78 1.84 1.96 1.96 1.89 1.88 1.88 1.96 2.08 2.07 2.14 2.26 2.45 2.68
2.26 2.14 2.14 2.18 2.12 2.01 1.91 2.02 2.21 2.30 2.31 2.32 2.40 2.50 2.41 2.31 2.18 2.08 2.04 2.01 1.86 1.81 1.80 1.80 1.77 1.60 1.54 1.70 1.78 1.73 1.70 1.81 1.80 1.75 1.82 1.81 1.86 1.95 2.00 2.11 2.22 2.38 2.57
2.51 2.40 2.19 2.10 2.10 1.98 1.96 2.04 2.09 2.07 1.99 2.00 2.00 2.07 2.09 2.04 1.99 1.79 1.74 1.76 1.74 1.73 1.71 1.61 1.59 1.54 1.51 1.59 1.61 1.60 1.57 1.58 1.64 1.65 1.72 1.77 1.86 1.86 1.91 1.98 2.03 2.17 2.28
2.46 2.27 2.18 2.12 2.01 1.95 1.99 2.04 1.99 1.86 1.90 1.92 2.00 1.93 1.94 1.99 1.99 1.88 1.75 1.68 1.66 1.64 1.61 1.54 1.49 1.49 1.48 1.39 1.35 1.38 1.44 1.52 1.50 1.46 1.56 1.61 1.68 1.71 1.82 1.80 1.88 1.99 2.19
2.40 2.24 2.15 2.09 1.91 1.80 1.79 1.76 1.70 1.64 1.68 1.78 1.88 1.92 1.84 1.78 1.78 1.82 1.69 1.51 1.45 1.41 1.48 1.42 1.36 1.37 1.33 1.21 1.21 1.25 1.25 1.36 1.38 1.34 1.36 1.38 1.41 1.43 1.47 1.46 1.67 1.88 2.07
2.54 2.37 2.25 2.15 1.95 1.80 1.70 1.65 1.53 1.44 1.50 1.57 1.74 1.82 1.77 1.69 1.63 1.66 1.64 1.59 1.53 1.49 1.46 1.43 1.38 1.31 1.19 1.16 1.08 1.08 1.14 1.22 1.33 1.41 1.36 1.23 1.19 1.16 1.10 1.16 1.32 1.56 1.81
2.47 2.37 2.32 2.20 2.02 1.89 1.78 1.81 1.62 1.42 1.51 1.56 1.58 1.64 1.68 1.73 1.71 1.66 1.65 1.68 1.71 1.68 1.54 1.41 1.37 1.30 1.21 1.12 0.95 0.90 0.97 1.18 1.32 1.41 1.39 1.14 1.02 1.12 1.10 1.15 1.17 1.28 1.42
2.58 2.56 2.42 2.23 1.97 1.78 1.69 1.66 1.62 1.51 1.54 1.52 1.47 1.48 1.49 1.54 1.57 1.63 1.68 1.69 1.66 1.65 1.61 1.47 1.40 1.32 1.11 1.00 0.84 0.85 0.91 1.07 1.08 1.11 1.21 1.27 1.26 1.15 1.18 1.19 1.27 1.34 1.43
2.47 2.47 2.30 2.19 2.10 1.85 1.73 1.60 1.54 1.58 1.50 1.39 1.31 1.28 1.27 1.35 1.38 1.45 1.59 1.69 1.69 1.60 1.48 1.40 1.36 1.29 1.15 1.05 0.95 0.95 0.96 1.02 0.96 0.90 0.95 1.02 1.07 1.06 1.11 1.21 1.42 1.47 1.57
1.99 1.98 1.88 1.84 1.87 1.70 1.62 1.58 1.54 1.54 1.46 1.32 1.20 1.16 1.21 1.31 1.35 1.39 1.54 1.61 1.65 1.51 1.32 1.26 1.28 1.22 1.19 1.06 0.89 0.85 0.84 0.96 0.97 1.00 1.03 0.96 0.83 0.88 1.00 1.22 1.51 1.67 1.70
1.79 1.70 1.64 1.67 1.64 1.51 1.51 1.53 1.49 1.42 1.28 1.19 1.17 1.20 1.24 1.35 1.36 1.45 1.57 1.50 1.38 1.37 1.30 1.24 1.26 1.16 1.03 0.90 0.75 0.72 0.72 0.86 0.94 0.97 1.01 0.99 0.84 0.75 0.82 1.04 1.29 1.49 1.56
1.79 1.71 1.67 1.59 1.51 1.50 1.54 1.54 1.48 1.28 1.16 1.15 1.21 1.26 1.26 1.21 1.20 1.40 1.50 1.45 1.39 1.34 1.29 1.24 1.19 1.07 0.95 0.82 0.72 0.63 0.58 0.62 0.81 1.00 1.00 0.99 0.93 0.86 0.92 1.05 1.20 1.35 1.54
1.78 1.75 1.66 1.55 1.47 1.44 1.47 1.47 1.34 1.12 1.06 1.15 1.29 1.35 1.28 1.33 1.32 1.32 1.36 1.43 1.45 1.31 1.20 1.16 1.09 1.00 0.93 0.82 0.69 0.60 0.56 0.57 0.67 0.86 0.95 0.91 0.87 0.95 1.15 1.27 1.38 1.53 1.76
1.57 1.54 1.47 1.39 1.31 1.25 1.21 1.19 1.10 1.05 1.12 1.22 1.31 1.33 1.33 1.40 1.39 1.32 1.20 1.16 1.16 1.13 1.06 1.02 0.95 0.94 0.94 0.78 0.66 0.67 0.63 0.64 0.69 0.83 0.99 1.04 1.03 1.16 1.33 1.46 1.55 1.67 1.78
1.48 1.41 1.33 1.23 1.10 1.04 1.00 0.94 0.92 0.95 1.08 1.17 1.23 1.23 1.24 1.27 1.34 1.25 1.13 1.07 0.97 0.91 0.89 0.82 0.75 0.80 0.80 0.68 0.64 0.58 0.61 0.69 0.74 0.83 0.99 1.12 1.16 1.25 1.39 1.50 1.56 1.61 1.63
1.34 1.36 1.25 1.16 1.00 0.94 0.94 0.89 0.84 0.88 1.00 1.07 1.06 1.00 1.03 1.06 1.09 1.13 1.09 0.90 0.74 0.64 0.59 0.58 0.56 0.52 0.52 0.50 0.49 0.51 0.58 0.66 0.77 0.89 1.13 1.21 1.19 1.22 1.29 1.39 1.49 1.49 1.47